FREGAT R/B, 44454

Orbit data source: Space-Track

FREGAT R/B, 44454 is space debris originally from a launch on Tue, 30 Jul 2019 UTC launched from the Plesetsk Missile And Space Complex (PKMTR). Debris objects in space refer to the collection of defunct objects orbiting the Earth. Examples of debris include non-operational satellites, rocket bodies, and fragments generated from explosions, collisions, or faulty payload assembly.

Loading next visibility...
Identifier
44454, 2019-046B
Orbit
Molniya
Country
Flag of CISCIS
Related business
Manufacturer
Lavochkin
Mission
Spacecraft
Bus & Motor
FREGAT, Unknown motor
Mass
1,000 kg wet, 1,000 kg dry
Launch date (UTC)
2019-07-30 (6 years ago)
Launch vehicle
Unknown
Launch site
Plesetsk Missile And Space Complex (PKMTR)
Object type
Payload
Rocket body
Debris
Shape & HBR
Cyl, 1.7 m
Radar Cross Section
8.354 m², Large (>1 m²)

Expand to show TLE details & history
Last TLE update: 2 months ago

TLE from 2 months ago
0 FREGAT R/B
1 44454U 19046B   25239.79772573  .00000594  00000-0  00000-0 0  9997
2 44454  63.0712  74.5954 7079556 276.4920  14.2031  2.00663237 44553
Epoch: 2025-08-27T19:08Z
TLE epoch observation values (Epoch: 2025-08-27T19:08:43.503Z)
Latitude
0.00018°
Longitude
171.14798°
Altitude
5,877.12 km
Speed
7.074 km/s
True Right ascension
04h 58m 23s
True Declination
0° 00' 01"
Sunlit
Object was in daylight at epoch
Visualization orbit readout
Latitude
Unknown
Longitude
Unknown
Altitude
Unknown
Speed
Unknown
Apparent Right ascension
Unknown
Apparent Declination
Unknown
Sunlit
N/A
Visualization observer readout
Local Sidereal Time
03:58:17
Azimuth
Unknown
Elevation
Unknown
Doppler factor
Unknown
Orbital elements
Apogee altitude
38,969.222 km
Perigee altitude
1,375.836 km
Semi-major axis
26,550.666 km
Eccentricity
0.70796
Inclination
63.0712°
RAAN
74.5954°
Arg. of periapsis
276.492°
True anomaly
83.63055°
Mean anomaly
14.2031°
Eccentric anomaly
40.6008°
Mean motion
0.50168 °/min
Orbital period
717.58 mins
BSTAR
0
Loading maneuver chart data...
Computing Atmospheric mass density...
Loading historical data...
Loading historical data...
Loading historical data...
Loading historical data...
Loading historical data...
Loading historical data...
Loading historical data...
Other satellites on launch #46 in the year 2019 (2019-07-30 UTC)

Documentation

Showing up to 5 results
|